Tracking 25710 objects as of 7-Jul-2022
HD Live streaming from Space Station
objects crossing your sky now

FENGYUN 1C DEB

Track FENGYUN 1C DEB now!
10-day predictions


NORAD ID: 41010
Int'l Code: 1999-025EXQ
Perigee: 828.0 km
Apogee: 888.6 km
Inclination: 99.3 °
Period: 102.0 minutes
Semi major axis: 7229 km
RCS: Unknown
Launch date: May 10, 1999
Source: People's Republic of China (PRC)
Launch site: Taiyaun Space Center, China (TSC)

Note: This is SATELLITE DEBRIS
aabbcc
Your satellite tracking list
Your tracking list is empty




NASA's NSSDC Master Catalog

Two Line Element Set (TLE):
1 41010U 99025EXQ 22187.33776799  .00001318  00000-0  73453-3 0  9990
2 41010  99.2849  16.9214 0041925 353.9874 130.1930 14.12413071507982
Source of the keplerian elements: AFSPC